Location: *
(46.1833°N, 22.7667°E)
Time: 07:14:16
(UTC+00:00)

Daily predictions for brighter satellites

Satellite Brightness Start Highest point End
(mag) Time Altitude Azimuth Time Altitude Azimuth Time Altitude Azimuth
BREEZE-M DEB (TANK) 3.6 16:57:05 10° W 17:00:57 54° N 17:07:22 10° ENE
NOSS 3-4 (A) 4.4 16:57:18 10° NNW 17:03:45 41° NE 17:10:47 10° ESE
Ariane Rocket 3.1 16:58:55 10° SSE 17:03:51 57° ENE 17:08:50 10° N
NOSS 3-4 (C) 4.4 16:57:25 10° NNW 17:03:51 41° NE 17:10:52 10° ESE
YAOGAN 6 3.2 17:01:16 10° S 17:04:52 63° W 17:08:33 10° NNW
SL-16 R/B 4.2 17:03:40 10° NNE 17:05:31 11° NNE 17:07:22 10° NE
SJ-6B 4.4 17:03:31 10° ESE 17:06:33 20° ENE 17:09:34 10° NNE
Okean 1 Rocket 4.0 17:03:14 10° SE 17:06:48 25° E 17:10:22 10° NNE
Cosmos 2333 4.3 17:01:21 10° NNW 17:07:00 63° ENE 17:12:38 10° SE
SKYMED 2 4.4 17:03:21 10° N 17:07:37 56° WNW 17:11:52 10° SSW
Okean 2 Rocket 3.2 17:04:42 10° S 17:09:10 86° W 17:13:42 10° N
Cosmos 1707 4.2 17:06:29 10° NNE 17:09:21 19° ENE 17:12:11 10° ESE
Cosmos 1378 3.1 17:07:09 10° N 17:10:55 68° E 17:14:39 10° SSE
Cosmos 1939 Rocket 2.8 17:08:35 10° SSE 17:12:23 61° ENE 17:16:13 10° N
NOSS 3-3 (A) 3.9 17:07:17 10° SSW 17:13:09 71° SE 17:19:44 10° NE
NOSS 3-3 (C) 3.9 17:07:24 10° SSW 17:13:15 71° SE 17:19:50 10° NE
GP-B 3.4 17:09:26 10° NNE 17:13:44 45° E 17:18:00 10° SSE
COSMOS 2428 2.9 17:10:18 10° NNW 17:15:53 53° ENE 17:21:24 10° SE
Cosmos 2219 Rocket 2.4 17:11:03 10° NNW 17:16:31 51° ENE 17:21:57 10° SE
Cosmos 2322 3.8 17:13:20 10° NNW 17:19:07 89° WSW 17:24:51 10° SSE
USA 186 3.1 17:17:11 10° SE 17:19:59 25° ENE 17:22:51 10° NNE
NOAA 11 4.2 17:17:16 10° SSE 17:22:46 81° ENE 17:28:17 10° NNW
Meteor 1-12 Rocket 4.3 17:18:31 10° S 17:24:07 56° E 17:29:39 10° NNE
SPOT 3 Rocket 4.1 17:22:29 10° SE 17:27:10 37° ENE 17:31:52 10° N
Nadezhda 1 Rocket 4.0 17:21:50 10° SSE 17:27:42 54° E 17:33:35 10° NNE
Cosmos 1743 4.3 17:24:05 10° SSW 17:27:42 40° WNW 17:31:23 10° N
Cosmos 2360 Rocket 3.2 17:22:19 10° NW 17:27:43 48° WSW 17:33:07 10° S
HJ-1C 3.3 17:24:25 10° SSE 17:27:45 69° ENE 17:31:08 10° N
CZ-2D R/B 3.5 17:25:28 10° S 17:29:15 71° WSW 17:33:04 10° NNW
Timation 2 Rocket 4.0 17:23:28 10° SSW 17:30:04 74° ESE 17:36:24 10° NNE
Cosmos 1536 Rocket 3.6 17:25:48 10° N 17:30:09 82° W 17:34:28 10° S
USA 234 4.4 17:25:55 10° NE 17:31:52 39° NNW 17:37:49 10° WNW
Meteor 2-15 Rocket 4.5 17:26:39 10° S 17:32:39 61° E 17:38:43 10° NNE
Cosmos 1025 Rocket 3.0 17:28:53 10° N 17:33:11 89° W 17:37:27 10° S
Meteor 2-15 4.4 17:27:42 10° S 17:33:49 76° E 17:40:00 10° NNE
Meteor 1-21 4.3 17:29:52 10° NNW 17:35:29 81° W 17:41:07 10° S
YAOGAN 1 4.4 17:32:39 10° SSW 17:36:35 34° W 17:40:33 10° NNW
NOSS 0 Rocket 4.3 17:31:04 10° NNW 17:37:05 49° NE 17:42:25 13° SE
BREEZE-M DEB (TANK) 4.2 17:37:31 10° WSW 17:39:30 19° SSW 17:43:02 10° SSE
Cosmos 1975 4.2 17:35:50 10° SSW 17:39:38 43° WNW 17:43:29 10° N
Cosmos 2219 4.0 17:34:56 10° SSE 17:39:50 30° ESE 17:44:45 10° NE
ADEOS Rocket 4.1 17:34:08 10° NNE 17:40:41 34° E 17:47:32 10° SSE
Cosmos 2227 Rocket 3.5 17:37:57 10° SE 17:41:35 18° E 17:45:15 10° ENE
Meteor 2-9 Rocket 4.4 17:38:36 10° SSW 17:44:24 82° W 17:50:06 10° N
IRS-1A Rocket 4.5 17:39:40 10° S 17:45:25 77° WSW 17:51:05 10° NNW
ATLAS 2AS CENTAUR R/B 2.9 17:40:04 10° NW 17:47:51 84° NE 17:54:25 13° SE
Cosmos 1842 4.2 17:44:03 10° NNW 17:47:54 51° W 17:51:44 10° S
Lacrosse 4 Rocket 4.4 17:46:39 10° W 17:48:13 12° WSW 17:49:48 10° SW
Cosmos 2297 Rocket 3.2 17:48:13 10° SSE 17:52:33 23° ESE 17:56:53 10° NE
ARGOS 3.5 17:49:39 14° SE 17:53:54 44° ENE 17:59:00 10° N
CZ-2C R/B 3.6 17:49:50 10° NNE 17:54:18 64° ESE 17:58:41 10° S
H-2A R/B 2.2 17:54:53 16° SE 17:58:34 49° ENE 18:03:23 10° N
Cosmos 2341 Rocket 4.0 17:56:07 10° N 18:02:18 58° ENE 18:08:06 12° SSE
Cosmos 405 Rocket 3.4 18:05:17 31° E 18:05:17 31° E 18:08:28 10° NNE
Cosmos 2181 Rocket 4.3 18:00:09 10° SSE 18:05:58 43° E 18:11:53 10° NNE
Cosmos 1461 3.3 18:04:54 10° SW 18:08:52 60° NW 18:12:49 10° NNE
Cosmos 2333 Rocket 2.6 18:03:38 10° NNW 18:09:17 65° WSW 18:14:56 10° SSE
Cosmos 1544 3.7 18:05:59 10° SSW 18:09:31 57° W 18:13:05 10° N
ASTEX 1 3.4 18:06:50 10° N 18:11:45 87° W 18:16:38 10° S
SAR-Lupe-2 4.3 18:09:38 10° N 18:13:09 54° WNW 18:16:38 10° SSW
Meteor 2-5 Rocket 4.1 18:13:05 10° N 18:18:40 46° ENE 18:21:08 30° SE
MetOp-A 4.4 18:16:35 29° SE 18:18:58 48° ENE 18:24:06 10° N
COSMOS 2455 4.3 18:14:02 10° NW 18:19:25 34° WSW 18:24:44 10° S
Cosmos 2237 Rocket 2.2 18:16:21 10° NNW 18:22:04 67° ENE 18:24:48 31° SE
Cosmos 1190 Rocket 4.0 18:18:02 10° NNW 18:23:20 64° ENE 18:25:35 34° SE
Cosmos 1544 Rocket 4.2 18:23:43 36° E 18:23:43 36° E 18:27:32 10° NNE
Cosmos 2218 Rocket 4.2 18:17:42 10° N 18:23:56 52° ENE 18:26:59 29° SE
Cosmos 1441 Rocket 4.5 18:20:24 10° SSW 18:24:02 42° WNW 18:27:40 10° N
Cosmos 1455 Rocket 3.3 18:23:36 41° ESE 18:24:16 44° E 18:28:31 10° NNE
In-Cosmos 22 4.0 18:19:29 10° N 18:24:51 74° ENE 18:28:07 25° SSE
SL-08 RB Rocket 3.8 18:25:24 37° SE 18:27:05 62° ENE 18:31:43 10° N
Cosmos 2366 rocket 4.2 18:24:08 10° N 18:30:22 54° ENE 18:33:06 33° SE
Cosmos 1980 3.6 18:25:14 10° NNW 18:30:56 82° ENE 18:33:33 33° SSE
ERBS 4.2 18:28:35 10° NNW 18:31:13 20° NNE 18:31:32 20° NNE
Cosmos 389 Rocket 2.5 18:29:02 10° NNW 18:32:28 75° W 18:33:05 55° SSW
Cosmos 1023 Rocket 4.5 18:28:15 10° NNW 18:33:23 60° ENE 18:34:45 44° ESE
SL-8 R/B 3.8 18:34:27 10° W 18:39:15 73° N 18:40:56 40° ENE
Cosmos 1674 3.7 18:37:11 10° N 18:39:41 33° NE 18:39:41 33° NE
CZ-2C R/B 3.0 18:39:02 42° SE 18:40:47 70° ENE 18:46:15 10° N
Resurs 1-3 3.5 18:39:28 45° SSE 18:40:49 89° WSW 18:45:14 10° NNW
SJ-6B 4.1 18:37:29 13° SSW 18:40:56 41° W 18:44:50 10° NNW
SL-8 Rocket 3.9 18:35:39 10° N 18:41:54 81° E 18:45:17 29° SSE
Resurs 01 Rocket 1.5 18:42:03 59° SE 18:42:47 74° ENE 18:47:14 10° N
Cosmos 1626 Rocket 4.4 18:39:35 10° N 18:42:49 34° NE 18:42:49 34° NE
Cosmos 1707 4.3 18:41:45 10° NNW 18:45:21 35° W 18:48:16 14° SSW
Meteor 1-4 Rocket 2.7 18:44:18 10° NNW 18:47:52 66° W 18:47:52 66° W
Cosmos 2056 Rocket 3.4 18:45:07 10° SSW 18:50:33 82° ESE 18:56:00 10° NNE
USA 186 4.3 18:48:19 10° SW 18:50:53 21° W 18:53:35 10° NW
SL-16 R/B 2.5 18:45:42 10° NNW 18:51:10 46° ENE 18:51:54 44° E
DMSP B5D2-2 4.1 18:47:41 10° NNE 18:52:54 55° E 18:52:54 55° E
NOSS 3-4 (A) 4.2 18:48:07 10° NW 18:55:03 61° WSW 18:59:02 29° S
NOSS 3-4 (C) 4.2 18:48:13 10° NW 18:55:09 61° WSW 18:59:07 29° S
Cosmos 407 Rocket 3.8 18:51:31 10° NNW 18:56:35 61° WSW 18:58:22 38° S
Cosmos 1959 Rocket 4.3 18:50:30 10° N 18:56:39 86° E 18:59:02 40° S
Cosmos 2219 Rocket 4.0 18:55:34 10° NW 19:00:08 26° WSW 19:04:43 10° SSW
Cosmos 614 Rocket 4.4 18:55:11 10° NNW 19:00:20 60° WSW 19:02:02 39° SSW
Cosmos 1624 Rocket 4.0 18:57:44 10° SSW 19:02:55 77° WNW 19:08:09 10° NNE
Cosmos 1602 Rocket 4.5 18:59:15 10° N 19:02:12 36° NNE 19:02:12 36° NNE
USA 234 4.4 19:10:20 21° ENE 19:13:56 36° N 19:19:47 10° NW
CZ-2C R/B 3.3 19:10:22 10° NNE 19:14:19 42° NE 19:14:19 42° NE
Cosmos 1954 Rocket 3.9 19:12:09 10° NNW 19:17:25 80° WSW 19:17:33 79° SW
ERS-1 Rocket 3.9 19:20:29 36° NNE 19:20:29 36° NNE 19:24:02 10° N
Spot 2 Rocket 3.4 19:20:07 84° WNW 19:20:07 84° WNW 19:25:06 10° NNW
Terra 3.7 19:23:11 20° NNE 19:23:11 20° NNE 19:25:13 10° N
Cosmos 2219 4.1 19:18:12 10° SW 19:23:45 48° WNW 19:29:20 10° NNE
Cosmos 2227 Rocket 2.3 19:19:19 10° SSW 19:24:58 75° WNW 19:30:40 10° NNE
ADEOS Rocket 4.1 19:19:20 10° N 19:26:21 57° WNW 19:33:50 10° SW
Cosmos 1140 Rocket 4.0 19:21:37 10° NNW 19:26:38 50° WSW 19:27:07 48° SW
MetOp-B 4.2 19:33:44 73° W 19:33:44 73° W 19:39:00 10° NNW
Cosmos 2297 Rocket 2.6 19:30:33 10° SW 19:36:08 60° WNW 19:41:45 10° NNE
RESURS DK-1 4.4 19:33:48 10° NNW 19:35:39 23° N 19:35:39 23° N
H-2A R/B 4.0 19:35:31 14° SW 19:38:17 22° W 19:42:08 10° NW
Meteor 1-24 Rocket 4.4 19:42:25 10° NNW 19:47:57 50° W 19:48:37 48° WSW
Cosmos 1943 4.5 19:50:31 10° NNW 19:54:24 31° NNE 19:54:24 31° NNE
Nadezhda 3 Rocket 4.3 20:06:21 63° NNW 20:06:21 63° NNW 20:11:36 10° N
Cosmos 2237 Rocket 4.1 20:01:29 10° NW 20:05:33 20° W 20:06:39 19° WSW
Resurs 01 Rocket 4.4 20:19:37 12° W 20:19:48 12° W 20:21:38 10° WNW
SL-16 R/B 3.9 20:30:12 10° NW 20:33:46 27° W 20:33:46 27° W
USA 234 3.9 20:57:41 49° NNW 20:57:41 49° NNW 21:02:41 10° NW
Terra 4.3 21:02:05 18° NW 21:02:05 18° NW 21:03:27 10° NNW
Cosmos 2263 Rocket 4.5 21:41:34 19° NNE 21:41:34 19° NNE 21:43:07 10° NNE
CZ-4C R/B 3.9 21:54:56 10° NNW 21:59:37 40° N 21:59:37 40° N
Cosmos 2082 Rocket 4.4 22:47:10 10° N 22:49:42 21° NNE 22:49:42 21° NNE
Cosmos 2278 Rocket 4.0 23:37:30 27° NNE 23:37:30 27° NNE 23:39:56 10° NNE
Resurs 1-4 Rocket 4.2 23:35:53 10° NNE 23:38:02 22° NE 23:38:02 22° NE
USA 267 4.3 23:41:25 10° NE 23:47:18 37° N 23:47:58 36° NNW
SL-16 R/B 3.6 23:50:33 39° N 23:50:33 39° N 23:54:25 10° N
